Wind_Speed
24 27 28 28 27 26 24 22 20 18 17 17 16 16 15 15 14 15 14 14 13 13 13 13 12 11 9 8 7 6 5 4 5 7 8 9 9 10 10 10 10 9 9 9 9 9 10 10 10 9 9 8 7 7 6 6 7 7 7 7 7 7 7 7 7 7 6 6 6 6 7 7 8 9 9 8 7 7 8 9 10 10 11 12 13
21 24 27 28 28 27 26 24 22 19 18 18 17 17 16 15 15 14 14 14 13 13 14 14 12 11 10 9 7 7 6 6 7 7 8 8 9 9 10 10 9 8 8 8 8 8 8 8 8 8 8 8 7 6 5 5 5 6 6 6 6 6 6 6 5 5 4 4 4 4 5 4 5 7 8 7 5 5 7 9 10 10 11 11 13
20 22 26 28 29 28 27 25 23 21 19 18 18 18 17 17 15 15 15 15 14 14 15 15 13 11 10 9 8 8 7 8 8 8 7 8 8 8 9 8 8 8 7 7 7 6 6 7 7 6 6 6 6 5 5 4 4 5 5 5 5 5 5 5 4 3 2 2 2 2 2 3 3 5 5 5 4 5 8 9 9 10 11 12 13
20 21 24 27 29 29 27 26 24 22 20 19 18 18 18 18 17 16 15 15 15 16 16 16 14 12 11 11 10 9 9 9 9 8 7 7 7 7 8 7 7 7 6 6 6 6 5 4 5 5 4 4 4 4 4 3 3 4 4 5 5 5 5 4 4 3 2 1 1 0 1 2 2 2 2 2 3 5 6 7 7 9 11 13 15
19 22 24 26 28 28 27 25 24 22 21 21 20 20 19 19 18 17 16 16 16 16 16 16 15 14 13 12 11 10 10 10 10 9 8 7 6 6 7 7 6 6 5 5 4 4 4 3 3 3 2 2 2 2 2 2 2 3 4 4 5 5 5 5 5 4 3 3 3 2 1 2 2 1 0 1 2 3 4 6 7 9 12 14 16
19 23 25 25 26 26 25 24 22 22 22 22 22 21 21 20 20 19 17 16 16 16 17 17 17 15 14 14 13 12 11 12 11 10 10 9 7 6 5 6 6 5 4 3 3 2 2 3 3 3 2 0 1 1 1 1 2 2 3 4 5 6 6 6 6 6 5 5 5 3 3 3 3 3 2 1 1 2 4 7 9 10 12 14 16
19 22 24 24 24 24 23 22 21 20 21 22 23 23 22 22 21 20 19 17 17 17 17 17 18 17 15 14 14 13 12 13 12 11 10 10 8 6 4 4 4 4 4 3 1 1 2 2 2 4 4 3 2 2 3 3 3 4 4 5 6 6 7 8 8 8 7 7 7 5 5 5 5 5 5 3 1 2 3 6 8 10 11 13 16
17 19 21 22 22 22 22 21 20 19 19 20 21 22 22 23 23 22 20 18 17 17 18 18 18 18 16 15 15 14 13 13 13 12 11 11 9 7 4 2 2 2 2 2 1 1 3 4 3 4 5 6 5 5 5 5 5 5 5 6 7 7 8 9 9 10 9 9 9 7 7 7 7 7 7 5 4 4 5 6 8 10 11 13 16
17 17 17 18 20 21 21 21 19 18 17 17 17 19 20 22 23 23 22 20 18 18 19 19 19 18 18 16 15 15 13 13 13 13 13 12 10 8 6 4 3 2 2 1 2 3 4 5 5 5 5 6 7 7 7 7 8 8 7 7 7 8 9 10 11 11 11 11 10 9 9 8 9 8 7 6 5 7 8 9 9 10 11 13 16
19 18 17 17 18 18 18 18 18 17 17 16 16 16 18 20 22 23 23 22 21 19 19 20 19 19 19 18 16 15 14 14 14 14 14 13 12 10 8 7 7 6 5 5 4 4 5 6 7 7 7 7 8 9 9 8 9 10 9 9 9 9 10 11 12 13 13 13 12 11 11 10 9 9 8 7 7 8 9 10 11 12 12 13 16
22 22 20 19 17 16 16 15 15 16 17 17 16 16 16 18 19 21 23 24 23 21 21 20 20 20 19 19 17 16 16 16 16 15 15 14 14 13 12 10 9 9 9 8 7 7 7 8 8 9 9 9 9 9 9 9 11 12 11 11 11 11 12 13 14 14 15 15 14 13 13 11 10 9 8 8 8 9 10 11 12 13 14 15 17
25 24 23 21 19 17 16 14 14 14 15 16 17 16 16 16 17 18 21 23 24 23 22 21 21 21 20 19 18 17 17 18 18 17 16 16 15 15 14 13 11 11 11 11 10 9 9 9 9 10 11 11 11 11 10 11 12 13 13 12 13 13 13 14 14 16 17 17 16 16 15 12 11 11 10 9 10 11 12 12 13 14 15 17 18
30 28 25 23 21 19 17 15 13 13 14 15 16 17 16 16 16 17 18 21 23 23 23 22 21 22 21 20 19 19 19 19 20 19 18 17 16 16 15 15 14 13 13 13 13 12 12 11 11 11 11 13 13 13 13 12 12 13 14 14 14 15 15 15 16 17 18 18 18 18 17 14 13 13 12 11 12 13 13 14 15 15 16 18 19
34 32 29 25 22 20 19 16 14 13 13 14 15 16 16 17 17 17 17 19 21 22 22 22 22 22 22 21 20 20 20 20 20 20 20 19 18 17 16 16 16 15 15 15 16 15 14 13 12 12 12 12 14 15 15 14 14 13 14 15 16 16 16 17 17 18 18 19 20 21 19 16 15 16 15 14 14 15 14 15 16 16 16 19 21
33 31 30 26 22 20 19 17 16 14 13 12 13 14 16 17 17 17 17 17 19 21 22 23 22 22 22 22 22 21 20 20 21 21 21 21 20 19 17 17 16 16 17 17 18 18 17 15 14 13 13 13 14 16 17 16 15 15 15 16 17 18 18 18 18 18 19 20 21 22 21 18 17 17 18 18 17 17 16 16 17 17 17 19 21
30 27 24 20 17 18 18 18 16 15 14 13 12 13 15 16 17 18 18 18 19 20 22 22 22 23 23 23 23 22 21 21 21 22 22 22 22 21 19 18 17 17 18 19 20 20 19 17 15 14 14 14 14 15 16 17 17 17 17 17 17 18 19 20 19 18 19 20 21 22 22 21 19 19 19 19 19 19 19 18 19 19 19 19 21
25 23 20 17 15 16 18 18 17 16 15 14 12 12 14 16 17 18 18 19 19 20 21 22 23 24 24 24 24 23 23 23 22 23 23 24 23 22 21 20 19 19 20 21 22 22 21 20 18 16 15 15 15 14 15 16 17 18 18 18 18 19 20 21 20 19 19 20 21 22 23 22 21 21 21 20 21 21 20 19 20 21 21 20 21
21 20 18 18 17 17 18 19 18 17 16 15 14 14 15 16 17 18 18 19 19 20 21 22 22 23 24 24 24 24 25 24 24 24 24 24 23 22 22 22 21 20 21 22 23 23 23 22 20 18 17 17 16 15 15 15 17 18 19 19 19 19 21 22 21 21 20 20 21 22 23 23 22 22 22 22 22 23 22 21 22 23 23 22 21
22 21 19 19 19 19 19 20 21 20 19 18 16 16 16 17 17 18 19 19 20 20 21 21 22 22 22 23 24 24 25 25 25 25 25 25 24 23 22 22 22 22 23 23 24 25 25 24 22 20 19 18 17 16 15 15 16 18 19 20 20 21 23 23 23 22 21 21 21 22 23 23 23 23 23 24 23 23 23 22 24 25 25 24 22
22 22 22 21 19 19 19 21 22 22 21 21 20 19 18 18 18 18 19 20 20 21 21 21 21 21 21 22 22 23 24 24 25 25 26 26 25 24 23 22 22 23 24 24 25 26 26 24 23 21 20 20 18 16 16 16 17 18 20 20 21 22 24 24 24 24 22 21 22 23 23 24 24 24 24 25 25 25 24 23 25 27 27 26 25
23 24 25 23 20 18 18 20 22 24 25 24 23 22 21 20 19 19 20 21 21 21 21 22 22 21 21 21 21 21 22 23 24 26 26 26 26 25 23 22 23 24 24 25 26 26 26 25 24 23 22 20 19 17 17 17 18 19 21 21 22 23 24 25 26 26 24 22 22 23 24 24 24 25 25 26 27 26 24 25 26 28 28 27 27
27 27 27 25 22 20 20 20 22 25 27 27 26 25 23 22 21 21 21 22 22 22 22 22 23 23 22 21 20 20 21 22 24 25 26 27 26 25 23 23 24 24 24 25 26 27 27 26 25 23 21 20 19 18 18 18 19 20 21 22 22 22 24 26 27 27 26 24 23 23 24 25 25 26 26 28 28 27 25 26 28 29 29 28 28
31 29 29 28 25 22 22 23 23 25 28 29 28 27 26 25 24 23 23 23 23 23 22 22 23 24 23 21 21 21 22 22 23 25 26 27 26 24 23 24 24 25 25 26 27 27 26 25 23 21 21 19 18 17 17 18 19 20 21 21 21 21 23 24 26 27 27 26 24 23 24 25 26 27 28 29 29 28 27 28 30 31 30 29 29
34 32 31 30 28 25 24 25 25 25 27 29 30 29 28 28 26 25 24 25 24 23 22 22 23 24 24 23 22 22 22 22 23 24 26 26 25 24 24 24 25 25 25 26 27 26 24 21 20 20 19 18 17 16 16 17 18 19 20 20 20 21 22 23 24 26 27 26 25 24 24 25 27 28 29 31 30 29 29 30 31 31 31 30 30
36 34 33 31 29 27 26 26 27 27 28 29 30 31 30 29 28 27 25 26 26 24 22 22 23 24 25 24 23 23 23 23 24 25 25 25 25 24 24 25 25 25 25 25 25 23 21 19 19 19 18 17 16 15 16 17 18 19 19 19 19 20 21 22 23 23 24 26 26 25 25 26 27 28 29 31 31 31 31 32 32 32 32 32 32
37 35 34 32 31 29 28 28 28 28 29 29 30 31 31 31 30 28 27 27 26 24 23 23 24 25 26 26 25 24 24 24 24 25 25 25 25 25 25 25 25 25 24 24 22 20 19 19 19 18 17 16 15 15 15 16 16 16 17 17 16 17 19 20 21 22 22 24 25 25 26 27 27 27 28 29 30 31 31 31 32 32 33 34 34
38 36 35 33 32 32 31 30 29 29 29 30 31 32 32 32 31 29 27 26 26 25 24 24 25 26 27 27 26 25 25 24 24 25 26 26 26 27 26 25 24 24 23 22 20 19 18 18 18 16 15 15 14 13 12 12 13 14 15 15 16 16 17 18 19 21 22 23 25 25 26 28 28 28 28 29 29 30 31 32 33 34 35 36 36
38 37 36 35 34 34 33 31 30 30 30 30 31 31 30 31 32 28 26 26 26 26 26 26 26 27 28 29 28 27 26 25 25 26 28 28 28 27 26 24 23 22 20 20 19 18 17 17 17 15 15 14 13 13 13 13 14 15 16 17 17 18 18 18 19 20 22 24 26 27 28 29 29 29 30 29 30 31 32 33 34 35 36 37 36
39 38 38 37 37 36 36 35 34 33 31 31 31 30 30 32 32 28 26 27 28 28 28 28 28 30 31 31 30 28 26 26 28 29 30 29 28 26 24 22 20 19 18 18 18 17 17 16 16 15 14 14 15 15 16 16 17 18 18 19 20 20 21 22 22 23 25 25 26 27 28 29 29 30 30 30 31 32 34 35 36 37 38 38 38
39 39 40 40 39 39 39 39 38 36 33 32 32 31 32 33 32 29 29 30 30 30 30 30 31 33 34 33 31 29 28 29 30 30 29 27 25 23 21 20 18 18 18 18 18 17 17 16 15 15 16 17 18 19 19 20 20 21 21 22 23 23 25 26 27 28 29 29 28 29 30 30 31 32 32 32 33 35 36 37 38 39 41 41 41
41 42 42 43 43 42 42 43 42 39 36 35 34 34 34 34 31 30 31 32 33 33 33 33 34 35 34 33 32 31 31 31 30 28 27 25 23 22 20 19 18 18 18 18 17 17 17 16 16 17 18 20 21 22 23 23 23 24 25 25 26 27 28 30 31 31 32 32 32 33 34 34 35 35 35 36 36 38 39 41 41 43 44 45 45
43 44 44 43 43 42 43 44 44 41 39 38 36 36 35 34 32 32 34 35 35 35 35 35 36 36 35 35 33 32 31 30 28 26 25 24 22 21 20 19 19 19 18 17 16 16 17 18 18 20 22 24 25 26 26 26 27 28 29 29 30 31 32 33 33 34 35 35 36 37 38 38 39 39 39 39 39 41 43 44 44 45 46 47 47
45 46 45 44 43 43 43 45 45 43 41 40 39 38 37 35 34 35 36 36 36 36 36 36 37 37 36 35 33 32 31 30 27 25 24 23 23 22 21 20 20 19 19 19 19 19 20 21 22 25 26 27 27 28 28 28 30 31 32 34 35 35 35 35 36 37 37 38 39 40 40 41 41 41 41 41 41 41 42 41 41 41 43 44 45
48 48 47 47 47 46 45 46 47 47 45 43 41 41 40 37 36 37 37 37 36 36 37 37 37 36 35 33 32 31 30 28 27 26 25 25 25 24 23 23 23 23 23 23 23 24 24 25 26 28 28 28 29 30 30 31 33 34 36 37 38 37 37 37 38 39 40 40 41 41 41 41 40 40 40 39 38 38 39 39 38 39 42 43 44
49 49 49 49 49 49 48 48 49 50 51 48 47 46 44 40 39 39 38 37 36 36 36 36 35 34 33 32 31 31 30 29 28 28 28 28 27 27 26 26 26 26 26 26 26 27 27 28 29 30 30 30 31 32 33 35 36 37 38 39 39 39 39 40 41 41 41 42 42 41 40 39 38 38 38 37 35 36 39 40 40 40 43 45 45
50 50 49 48 48 47 47 48 50 53 54 52 51 53 51 45 42 42 40 38 37 36 36 36 35 33 32 32 31 31 32 31 30 29 29 29 29 29 28 28 28 28 28 28 29 30 30 31 32 32 33 33 34 35 36 38 39 40 40 40 41 42 42 43 43 43 42 42 41 40 39 39 38 39 38 36 35 37 39 41 42 44 45 46 44
50 49 48 47 44 42 43 46 50 54 56 54 53 56 55 50 46 47 46 43 40 38 37 35 34 33 32 32 32 32 32 31 30 30 29 29 30 30 30 31 30 30 30 30 31 32 33 34 35 35 36 36 37 38 39 40 41 42 42 42 43 44 44 45 45 43 42 40 38 38 39 39 39 39 39 38 38 39 39 41 44 48 48 46 42
50 47 45 44 44 42 41 43 47 51 54 55 54 56 57 54 50 50 48 44 41 40 38 36 34 33 32 32 32 32 31 30 30 30 29 30 31 32 32 32 32 32 32 32 33 34 35 37 38 39 39 39 40 40 41 42 42 42 43 44 44 44 44 44 43 41 40 39 38 38 39 39 40 40 41 40 40 40 40 41 44 48 47 43 39
48 46 42 43 44 44 43 44 46 49 52 54 55 57 58 56 52 49 46 42 39 37 37 35 32 31 32 32 31 30 30 29 29 30 30 32 33 34 34 33 33 33 33 34 35 36 38 39 40 41 41 41 41 42 42 43 43 43 44 44 43 42 42 41 40 39 39 39 39 40 40 40 41 42 42 41 40 40 41 41 44 47 45 39 36
46 45 43 43 45 45 44 45 46 47 50 53 56 59 60 57 52 48 46 42 37 33 34 34 31 29 29 29 29 28 29 29 30 31 32 33 34 34 34 34 34 34 35 36 38 39 39 40 40 41 41 42 42 43 43 43 42 42 42 43 42 40 39 38 37 38 38 38 40 41 41 41 42 43 43 42 42 41 42 42 44 44 42 40 40
46 45 44 45 47 45 43 43 44 44 47 52 57 60 60 57 51 47 45 42 37 34 36 38 35 30 29 29 29 28 29 30 31 32 33 33 33 34 34 35 35 36 37 38 39 39 39 39 40 40 41 42 42 42 41 41 40 40 40 41 40 39 38 38 37 38 40 40 41 42 43 44 45 45 45 45 45 44 44 45 44 44 44 45 46
46 46 43 44 46 44 42 42 42 42 45 52 57 58 55 51 45 43 43 42 39 36 36 38 36 33 31 31 31 30 32 33 34 34 33 33 33 34 35 35 35 35 35 36 37 38 38 39 39 40 40 40 39 39 38 38 38 38 37 38 39 39 39 39 39 40 42 43 44 44 45 46 48 49 49 48 47 46 46 45 45 46 47 48 49
46 45 43 42 43 42 42 42 43 44 46 50 54 54 48 43 40 39 39 41 40 37 35 35 34 33 32 31 32 33 35 36 36 34 34 33 33 33 34 33 33 33 33 34 36 37 39 40 40 39 39 38 38 37 37 37 37 38 38 38 39 39 40 41 42 43 44 45 46 47 48 48 48 49 49 49 49 48 48 47 47 48 48 49 49
48 46 44 42 40 40 40 40 43 46 47 48 49 47 43 41 42 41 40 40 40 40 38 35 33 31 31 32 34 36 38 38 37 35 35 34 33 32 32 32 33 34 35 36 37 38 38 39 39 38 37 36 36 36 36 36 37 39 39 39 38 38 40 42 42 43 44 45 45 46 47 48 48 49 50 50 51 51 51 52 52 50 49 49 49
52 49 46 43 40 38 38 38 39 43 46 48 48 45 43 43 43 42 40 39 38 38 38 36 34 33 33 34 36 38 39 39 38 37 36 35 34 33 33 34 36 37 38 38 38 38 37 37 36 36 35 34 34 35 35 36 37 39 40 40 39 39 41 42 43 44 45 46 47 48 49 50 51 53 53 54 54 54 55 56 55 53 51 51 51
55 53 49 46 42 40 39 39 40 42 43 45 45 45 43 41 38 36 37 38 38 39 39 38 37 36 36 36 36 35 36 36 37 36 36 35 35 34 35 36 37 37 37 37 37 36 35 35 35 34 34 34 35 36 37 37 38 39 41 42 42 43 44 45 46 47 48 49 51 52 53 54 55 56 57 57 58 58 58 58 57 56 54 54 53
54 53 51 48 46 44 42 42 44 44 43 41 42 44 43 41 37 34 36 38 39 40 40 40 40 39 39 37 35 34 34 34 35 35 35 36 36 36 37 38 37 36 35 34 34 34 34 34 34 35 35 36 38 38 39 40 42 43 44 45 46 47 48 49 50 51 53 54 55 55 56 57 58 59 60 61 61 61 60 60 59 59 59 58 57
52 51 51 50 49 47 45 44 45 45 43 41 41 42 42 41 38 36 36 38 39 39 40 40 41 41 40 39 37 36 35 35 36 36 36 37 37 37 37 37 37 37 36 35 35 35 35 36 36 37 38 39 41 42 43 44 45 46 47 49 50 51 52 53 54 55 56 57 58 58 59 60 61 61 62 62 63 63 63 63 63 63 62 61 59
55 54 54 53 52 50 48 47 47 46 46 45 45 45 44 43 42 40 39 40 41 41 41 42 42 42 42 42 41 40 38 37 38 39 39 39 39 39 39 39 39 39 39 39 39 39 39 40 40 41 42 43 44 45 47 48 49 50 51 52 53 54 55 56 57 58 59 60 61 62 62 63 64 64 64 65 66 66 67 67 66 65 63 61 59
56 56 56 56 55 54 51 50 49 48 47 48 48 47 46 46 47 46 45 46 46 46 45 45 44 45 45 45 44 44 42 41 41 41 41 42 42 42 42 42 42 42 43 43 44 44 44 45 45 46 46 47 47 48 50 51 52 53 54 55 56 57 58 59 60 61 62 63 63 64 65 66 66 66 67 68 68 69 69 69 67 64 62 61 60
57 56 56 56 57 57 56 54 52 50 50 51 51 50 49 49 49 49 50 50 50 50 49 48 48 48 48 47 47 47 47 46 45 44 43 44 45 45 45 45 46 46 47 48 48 49 49 49 50 50 51 52 52 53 54 55 55 56 57 58 59 60 61 62 63 64 65 65 66 67 67 68 68 69 70 71 71 70 70 69 68 66 65 64 62
Wind_Direction
221 213 209 208 208 209 211 213 215 214 213 215 218 220 222 224 224 222 218 214 213 216 222 225 228 231 234 237 240 242 235 206 173 157 147 135 125 117 111 106 101 95 90 86 82 81 81 82 84 89 96 106 116 122 125 125 125 127 129 131 132 129 126 119 113 109 104 97 93 86 80 75 59 54 63 61 42 31 28 29 30 25 18 14 11
232 221 214 212 210 210 211 213 214 213 213 216 220 223 225 226 227 226 225 223 221 224 230 233 235 237 241 242 240 237 224 201 181 169 155 141 130 120 113 106 101 96 90 85 80 76 77 79 81 85 91 96 104 114 124 129 129 132 134 137 142 143 142 138 128 119 109 97 91 84 84 81 58 52 60 60 48 40 35 35 34 26 22 17 10
235 229 219 214 213 211 211 213 215 214 214 217 221 225 229 231 230 228 228 226 224 227 235 239 239 241 244 246 245 237 223 207 192 180 166 150 136 124 115 107 101 96 88 82 75 69 69 73 76 79 85 93 99 105 117 131 140 145 147 150 156 160 163 160 150 139 126 106 95 84 85 86 61 44 42 45 47 42 37 35 28 19 16 11 6
229 234 226 217 214 213 212 212 215 217 217 219 221 225 230 235 235 233 232 231 227 227 233 239 241 240 240 242 243 237 225 214 202 190 179 165 149 133 120 110 102 94 84 76 71 63 55 54 63 75 81 89 98 103 111 127 146 159 164 168 174 179 185 186 178 170 181 202 206 313 71 87 83 64 31 37 52 45 33 27 20 11 4 0 2
228 233 231 222 215 213 212 211 213 216 219 221 222 225 229 234 237 237 236 237 235 232 234 239 242 241 238 236 237 235 226 218 210 200 192 185 171 151 132 117 108 97 84 73 63 56 46 27 22 47 77 91 98 109 120 132 156 174 179 183 188 193 198 205 207 203 211 232 246 260 226 174 161 167 202 27 50 35 14 4 5 5 358 355 357
227 230 231 226 218 214 212 211 212 214 218 221 222 224 227 232 237 238 237 237 239 239 238 240 244 243 240 238 237 234 228 221 215 207 202 198 194 178 150 130 118 107 94 78 56 35 28 11 347 340 340 305 195 211 215 214 217 215 211 204 201 201 205 212 220 224 228 238 250 257 231 205 203 206 213 227 23 14 355 345 348 354 354 351 350
226 228 228 226 220 215 211 209 210 212 216 220 222 224 226 229 235 239 238 236 237 240 241 242 245 246 245 243 241 238 233 227 223 217 213 211 208 202 181 150 131 117 111 110 102 330 323 328 324 316 311 301 280 260 253 249 247 240 231 225 219 214 211 214 223 229 234 241 250 254 241 223 218 217 215 225 282 331 336 333 333 339 343 343 341
221 224 224 223 220 215 211 209 208 210 214 220 223 225 226 228 233 237 240 238 236 238 241 241 244 247 247 246 245 244 239 235 232 228 226 227 223 219 215 199 161 131 120 131 165 243 280 292 299 298 299 300 295 281 267 257 255 251 243 236 230 225 220 219 224 231 236 244 250 252 242 225 217 221 226 239 270 289 301 312 319 326 332 333 330
214 217 217 218 217 215 211 209 209 209 212 217 221 226 227 228 232 236 239 240 238 238 240 242 244 246 248 247 245 246 244 240 239 236 235 238 238 234 237 251 264 269 273 271 231 234 254 271 280 282 284 288 287 283 276 266 260 256 251 247 241 235 229 224 226 231 237 244 249 251 248 231 218 224 234 245 263 276 288 302 311 315 321 322 320
210 212 213 213 214 214 210 208 209 209 210 213 216 221 224 227 230 234 237 239 239 239 241 243 244 244 246 247 243 242 243 241 241 241 240 242 244 245 246 251 261 267 269 272 261 243 243 254 266 271 272 273 274 276 277 272 265 259 254 252 249 243 238 231 229 231 237 244 249 252 252 242 229 230 238 249 261 272 284 295 302 307 312 315 316
212 210 210 211 212 212 207 204 207 209 211 212 213 216 220 223 227 231 235 237 237 239 240 242 245 244 245 246 243 240 239 239 240 241 242 243 244 246 248 247 250 256 260 265 265 253 243 245 254 261 264 265 266 269 270 269 266 263 258 254 251 249 245 239 234 232 236 244 251 254 256 252 244 242 244 251 261 272 282 288 294 303 310 312 313
214 212 210 209 209 210 207 201 202 207 212 214 213 215 217 220 223 227 233 236 236 237 238 240 244 246 246 247 246 242 239 239 239 240 241 243 242 244 247 245 244 246 250 257 261 258 251 248 252 256 259 263 265 266 266 263 262 262 259 255 251 250 249 245 241 237 237 242 250 256 260 258 254 252 251 255 264 272 280 285 290 300 308 311 313
207 207 208 207 204 205 204 201 202 205 211 215 214 214 216 217 219 221 227 233 235 236 236 237 241 246 248 248 248 246 243 242 242 242 241 242 241 240 242 244 244 243 244 249 256 257 254 254 259 259 256 259 263 265 266 264 264 263 260 256 253 252 252 250 247 244 242 242 247 254 260 261 260 259 257 258 265 271 277 284 288 295 304 308 311
208 201 200 200 200 201 198 196 200 204 210 216 215 214 214 216 218 217 220 229 234 235 235 234 236 241 245 248 248 247 247 246 246 246 244 243 242 240 239 240 242 243 244 246 251 255 255 256 262 265 261 258 259 262 264 265 266 267 263 257 252 253 255 254 252 251 248 246 247 253 258 260 260 263 263 262 265 270 275 280 285 292 298 302 306
219 207 198 193 192 197 198 195 198 202 207 215 218 215 214 215 218 218 217 222 229 232 232 232 232 235 240 245 246 247 248 249 250 250 249 247 244 241 239 238 238 242 245 247 249 252 254 256 260 264 263 260 257 259 262 263 265 267 266 261 254 252 255 257 258 258 254 250 249 253 258 260 258 261 265 266 268 272 274 278 283 288 294 298 302
222 217 211 208 203 200 201 201 201 204 207 210 215 217 215 215 218 218 217 218 223 229 231 231 231 231 234 239 243 245 247 248 250 251 251 250 247 243 242 240 239 240 244 247 249 251 252 253 257 261 263 261 259 258 261 264 265 266 266 263 257 253 254 258 262 264 260 256 253 254 259 262 260 260 264 267 270 272 274 278 282 286 291 295 298
223 216 219 237 240 222 213 210 206 207 212 212 211 215 217 218 219 219 219 219 221 226 229 229 230 230 231 233 237 241 244 245 247 249 251 252 250 247 244 242 241 242 244 245 247 249 251 252 255 258 260 262 263 261 260 263 265 267 268 265 260 255 253 257 263 266 265 262 257 256 258 261 262 263 266 269 272 274 276 280 283 285 288 292 297
224 218 222 242 248 233 224 219 213 211 215 218 217 215 215 219 221 221 222 222 222 225 228 230 231 231 232 232 233 237 241 243 245 247 250 252 252 250 246 243 242 243 244 244 243 245 248 250 252 255 257 260 264 265 264 262 263 266 267 267 265 259 253 256 262 266 267 266 262 259 258 260 262 265 268 270 273 276 280 285 286 286 287 291 296
218 221 225 232 236 230 223 220 218 216 215 219 223 222 219 220 222 223 225 225 225 227 229 231 232 232 233 234 234 235 238 241 244 246 248 251 252 250 248 245 241 240 241 241 241 241 244 246 248 252 256 260 263 265 266 265 264 264 265 267 268 263 257 256 260 264 266 267 265 263 261 261 261 264 267 269 272 276 281 285 287 286 288 291 295
216 218 220 221 226 228 223 219 219 219 217 218 223 226 225 222 222 224 226 227 228 229 231 233 234 234 233 234 235 235 235 237 241 243 245 248 249 249 247 245 241 239 238 237 238 239 240 242 245 250 255 261 265 267 268 267 265 263 263 264 265 263 260 258 258 260 263 265 266 266 264 262 261 262 264 267 270 274 278 282 284 285 287 291 294
218 221 220 220 224 229 227 221 219 219 218 218 221 226 228 228 225 224 226 229 231 230 231 234 236 236 235 234 235 236 235 234 236 239 242 245 246 246 246 243 240 237 236 236 237 237 238 240 245 251 256 262 267 268 267 266 264 263 262 262 262 263 262 260 258 260 262 263 265 267 266 263 262 261 263 266 269 272 276 280 283 284 286 288 291
222 224 224 223 225 230 232 227 221 219 219 221 222 224 228 231 230 228 229 231 232 232 232 233 236 238 236 234 233 234 236 235 234 236 239 242 243 244 242 240 239 236 234 234 236 237 239 242 247 254 260 266 268 267 265 264 263 263 263 263 263 263 263 262 260 261 262 263 264 267 267 266 263 262 263 266 269 272 276 280 282 283 284 286 287
223 225 227 226 225 228 232 232 227 222 220 222 223 224 227 231 233 232 233 233 234 234 233 232 234 237 237 235 233 233 236 237 236 236 238 240 241 241 238 237 236 234 232 233 236 238 241 245 251 259 264 267 266 265 264 264 264 265 265 264 263 262 262 263 262 262 263 264 265 267 269 269 267 265 264 266 269 273 275 276 278 280 282 284 285
224 225 227 227 226 226 228 230 231 227 222 221 223 225 226 230 233 234 235 236 235 235 234 232 232 234 236 235 232 231 233 235 236 236 237 238 238 236 234 233 233 233 232 233 236 239 243 249 256 261 262 262 262 262 262 263 265 268 268 268 265 260 260 261 261 260 261 263 265 267 270 272 271 268 266 267 270 272 274 275 277 280 282 283 284
226 224 226 228 229 228 226 226 229 230 226 222 223 225 227 229 232 234 234 236 237 236 235 234 232 231 232 233 232 231 230 231 233 234 234 235 234 232 230 230 230 231 232 233 236 241 246 251 252 253 255 259 262 263 262 262 265 267 269 270 268 262 258 259 261 261 261 261 263 265 269 272 274 273 272 271 271 272 274 276 278 280 282 283 284
227 225 225 227 229 229 227 226 228 230 230 226 223 224 227 230 232 233 233 235 237 236 236 236 232 229 229 229 230 230 229 228 229 231 231 230 229 229 229 228 228 229 231 234 238 242 245 246 247 249 255 261 262 261 262 264 266 269 273 277 277 272 265 261 260 261 262 262 263 264 266 270 273 275 275 274 274 274 275 277 279 281 282 283 284
226 226 225 226 229 230 229 228 229 230 231 230 227 225 227 230 232 232 232 235 236 237 237 236 232 228 227 228 228 228 227 225 225 226 227 226 226 227 228 228 229 230 232 236 239 241 242 246 250 254 255 254 253 256 264 272 275 278 283 288 291 290 284 276 270 266 263 262 262 263 265 268 271 273 273 273 274 275 276 277 279 280 282 283 283
225 225 226 227 229 232 233 233 233 232 231 231 230 228 228 232 234 232 231 234 236 236 237 235 231 228 226 225 226 225 224 221 220 220 222 224 225 227 229 230 231 232 234 237 240 242 244 248 251 251 249 248 252 259 267 274 277 280 284 289 292 292 291 288 283 277 271 268 266 266 267 269 271 272 272 272 273 275 276 278 279 280 281 282 284
226 225 226 227 229 232 234 235 235 234 232 232 231 230 230 233 235 231 228 230 232 233 234 233 230 227 225 224 224 223 220 217 216 217 221 225 227 229 231 232 233 234 234 237 241 243 244 246 246 246 248 253 258 262 265 267 270 273 276 279 282 285 285 285 283 280 278 276 275 273 272 272 273 274 274 275 277 278 278 279 281 282 283 283 285
228 228 228 228 228 230 234 237 237 236 234 232 231 230 232 234 234 229 225 226 228 230 231 230 228 226 225 225 223 221 218 217 217 220 224 228 230 230 231 230 230 232 233 235 237 238 238 238 240 245 251 256 259 262 264 265 266 268 270 272 274 276 277 278 279 279 279 280 280 279 278 278 278 279 280 281 282 281 282 283 284 284 284 285 286
227 229 229 229 229 228 230 234 236 236 234 233 232 232 233 235 233 227 224 224 226 228 228 228 226 225 225 224 223 222 220 221 222 222 224 227 229 227 226 226 227 229 231 232 234 235 236 238 242 248 253 256 258 259 261 263 266 267 268 270 271 272 273 275 277 278 279 281 281 281 281 282 282 282 283 284 284 284 284 284 283 282 283 284 284
226 228 229 230 231 231 231 234 235 234 232 232 233 233 234 235 233 228 224 224 226 228 228 227 225 224 223 223 223 223 222 223 223 222 222 222 223 224 224 225 226 228 230 233 236 240 244 247 250 253 255 257 258 259 261 263 266 268 269 270 271 272 274 276 278 279 280 281 281 282 283 283 284 284 284 283 283 283 283 283 283 283 284 284 284
225 226 227 228 231 232 233 236 238 237 234 233 233 234 235 235 232 229 227 226 227 228 228 227 225 224 222 222 222 222 223 223 222 220 217 216 218 222 225 227 229 230 233 237 241 245 249 253 255 257 258 259 259 261 263 267 270 272 273 273 274 274 274 276 277 279 280 280 281 282 283 284 285 285 285 284 284 284 284 284 285 286 287 287 287
228 226 225 226 227 229 230 234 238 238 236 235 233 233 233 233 232 230 228 228 230 231 229 227 225 223 222 221 221 221 222 222 219 216 214 214 216 220 224 227 231 234 237 239 243 248 252 256 258 260 261 260 261 264 269 273 276 277 278 278 278 277 275 275 275 277 279 280 281 283 284 285 286 286 287 288 289 290 289 288 288 289 290 290 290
233 231 229 227 226 226 228 230 233 234 234 235 235 233 230 229 229 228 227 228 230 229 227 225 223 222 221 220 219 220 220 220 218 217 216 217 219 222 226 230 233 237 239 242 246 250 255 258 261 262 262 262 265 269 274 278 280 281 282 282 281 279 277 275 276 277 278 280 282 283 285 286 286 286 288 291 293 293 291 290 290 291 291 291 291
236 236 235 231 228 226 228 231 231 230 229 231 234 231 225 221 223 224 225 226 226 223 221 221 219 218 219 218 218 219 220 220 220 220 220 222 224 227 230 233 237 240 243 246 250 254 258 261 264 265 265 266 269 272 276 280 282 283 283 283 281 278 277 276 276 277 278 279 281 282 283 283 283 284 287 290 291 291 289 290 292 291 289 289 290
236 237 237 237 234 229 227 231 233 231 226 224 227 227 222 215 215 218 219 219 218 218 218 218 217 216 218 219 220 221 222 222 222 223 224 226 229 231 234 237 240 243 246 250 254 257 261 264 266 268 269 271 273 275 277 279 280 281 281 279 277 275 275 275 276 278 279 280 281 282 282 282 284 285 288 289 290 290 290 293 293 291 287 286 285
234 234 235 237 237 234 230 231 235 235 231 224 221 223 222 217 214 214 213 212 213 215 216 215 214 214 217 220 222 223 225 225 226 227 229 231 234 236 238 241 243 246 249 253 256 260 263 266 268 271 272 273 274 275 276 277 277 277 276 274 272 273 274 276 278 280 282 283 283 283 283 285 288 289 289 290 290 292 293 296 298 297 293 287 283
234 233 232 233 235 237 235 233 234 237 235 229 222 220 221 221 218 214 210 210 212 215 216 216 215 216 218 222 224 225 227 230 231 232 234 236 238 241 243 245 248 250 253 256 259 261 263 265 267 269 271 272 273 274 275 275 275 275 274 274 274 276 278 279 280 281 282 283 284 284 285 287 288 288 288 288 290 294 297 299 302 303 300 294 290
237 237 235 233 234 237 236 234 235 236 234 230 225 221 221 223 222 215 211 211 214 215 214 215 218 221 221 224 228 230 232 234 236 237 239 241 243 245 248 249 252 254 255 257 258 260 261 263 265 267 270 272 273 274 275 275 275 275 275 275 276 278 278 279 280 281 282 283 284 285 287 288 287 287 288 291 293 296 298 300 301 302 300 296 294
235 237 237 235 236 238 237 236 238 237 233 230 228 225 226 228 225 216 210 212 217 219 215 214 219 226 228 227 232 236 239 241 242 242 243 245 247 249 251 252 253 255 257 258 259 260 261 263 266 268 270 271 272 273 274 275 275 275 275 276 278 278 279 280 281 283 284 285 286 286 288 289 288 289 292 295 296 298 300 300 300 299 299 296 292
232 234 236 236 237 238 238 237 237 236 233 230 229 228 230 230 225 215 210 214 220 222 218 216 223 234 235 233 237 242 244 246 247 248 249 252 254 255 255 255 256 259 260 261 262 262 263 264 264 265 265 267 268 270 272 273 273 274 275 277 279 280 281 282 283 284 285 286 287 287 288 289 290 291 293 296 297 298 300 300 299 299 299 297 293
232 234 236 237 234 233 234 235 234 233 231 229 228 230 230 226 219 215 216 218 222 223 221 221 229 237 240 240 243 247 247 249 251 253 255 257 258 257 257 256 258 259 260 259 260 260 261 261 262 262 262 263 264 266 268 270 273 275 276 277 278 279 280 282 284 285 285 286 287 288 289 289 291 293 295 297 298 299 299 299 300 301 302 301 299
233 234 236 237 234 230 229 229 228 226 225 223 225 227 225 219 217 218 218 219 222 225 227 229 235 240 240 242 245 247 248 251 254 256 256 256 255 255 255 255 256 256 257 258 259 260 260 261 262 262 263 264 265 266 267 269 272 276 278 279 279 279 281 283 284 285 287 288 289 289 290 291 292 294 295 296 297 298 299 300 301 301 302 302 301
231 233 236 237 236 231 229 228 227 224 221 219 221 221 217 213 215 218 217 217 221 226 230 234 238 239 239 241 244 247 250 252 254 254 254 254 254 254 255 255 256 257 258 259 260 260 261 262 262 263 264 265 266 267 269 270 272 276 279 282 283 283 284 285 286 287 288 289 289 289 290 290 291 292 293 294 295 297 297 298 299 300 300 301 300
229 231 234 236 236 233 230 229 230 229 225 223 222 221 216 213 214 217 218 220 224 228 231 234 236 236 237 241 244 247 250 251 251 251 252 254 255 256 257 258 259 260 261 263 263 264 265 266 268 269 271 272 273 274 275 276 277 279 282 284 285 286 286 287 287 287 288 288 288 289 289 290 290 291 292 293 294 295 296 297 299 299 300 301 301
229 230 233 234 235 234 232 230 229 230 229 227 224 221 219 217 218 219 222 225 228 230 232 234 234 235 238 242 245 247 248 248 247 247 249 252 255 259 261 262 263 264 266 268 270 271 272 273 275 277 279 280 281 281 282 283 283 284 284 285 285 286 286 286 287 287 287 287 288 288 289 289 290 291 292 293 294 294 295 296 298 299 300 301 301
228 230 232 234 234 233 231 230 229 229 230 230 227 226 225 225 226 226 228 230 232 235 236 236 236 237 240 242 243 246 247 246 244 244 248 253 257 261 263 265 265 266 268 270 272 274 276 278 280 282 284 284 285 284 284 284 284 284 284 284 285 285 285 286 286 287 287 288 289 289 290 290 291 292 293 294 294 295 295 296 298 299 299 299 299
229 231 233 235 237 236 233 231 230 231 232 233 233 233 234 234 234 235 235 236 237 238 239 239 240 241 243 245 245 246 247 247 246 248 252 257 260 263 265 266 266 267 268 270 272 275 276 277 279 281 283 284 284 285 285 284 284 284 284 284 284 285 286 286 287 287 288 288 289 290 290 291 292 292 293 294 295 295 296 298 299 300 299 298 297
230 230 231 234 237 239 239 238 236 235 236 236 236 238 239 239 239 240 240 240 240 241 241 241 242 243 246 248 248 248 249 250 252 254 257 260 263 266 268 269 269 270 271 272 274 275 276 277 278 279 280 281 282 282 282 283 283 283 283 283 284 284 285 285 286 286 287 288 289 289 290 290 291 292 292 293 294 295 296 298 299 298 296 295 294
231 232 231 232 234 236 239 241 240 240 240 239 239 240 241 240 240 241 242 242 241 241 242 243 244 245 247 249 250 250 251 253 255 257 260 262 264 267 269 270 271 272 273 273 274 274 275 276 276 277 277 278 279 279 280 281 282 282 283 283 283 283 284 284 285 285 286 287 288 289 290 290 291 292 292 293 294 295 296 297 297 295 294 293 292
Height
5925 5925 5926 5927 5929 5931 5934 5936 5939 5941 5944 5946 5948 5949 5951 5952 5954 5955 5957 5958 5959 5960 5961 5962 5963 5963 5964 5965 5966 5966 5967 5967 5968 5969 5970 5970 5971 5972 5972 5972 5973 5973 5973 5973 5973 5974 5974 5974 5974 5973 5974 5974 5974 5974 5975 5975 5976 5976 5977 5977 5978 5978 5978 5978 5979 5979 5979 5979 5979 5979 5979 5978 5978 5978 5978 5977 5976 5976 5975 5975 5974 5974 5973 5972 5970
5925 5925 5926 5927 5928 5929 5931 5933 5936 5939 5942 5944 5946 5948 5950 5951 5953 5955 5956 5958 5959 5960 5960 5961 5962 5963 5964 5965 5965 5966 5966 5967 5968 5968 5969 5970 5971 5972 5972 5973 5973 5974 5974 5974 5974 5974 5974 5974 5974 5974 5974 5974 5974 5974 5975 5975 5975 5976 5976 5977 5977 5978 5978 5978 5979 5979 5979 5979 5979 5979 5979 5979 5978 5978 5978 5977 5977 5976 5976 5975 5974 5973 5973 5971 5970
5923 5925 5925 5926 5926 5927 5929 5931 5934 5937 5940 5943 5945 5947 5949 5950 5952 5954 5955 5956 5958 5959 5959 5960 5962 5963 5964 5964 5965 5966 5966 5967 5967 5968 5969 5970 5971 5972 5973 5973 5974 5974 5974 5974 5974 5974 5975 5975 5975 5975 5975 5975 5975 5975 5975 5975 5975 5976 5976 5977 5977 5978 5978 5978 5979 5979 5979 5979 5979 5979 5979 5979 5978 5978 5978 5977 5977 5976 5975 5975 5974 5973 5972 5971 5970
5920 5923 5925 5925 5925 5926 5927 5929 5932 5935 5938 5941 5943 5945 5947 5949 5951 5952 5954 5955 5957 5958 5959 5959 5961 5962 5963 5964 5964 5965 5966 5966 5967 5968 5969 5970 5971 5972 5973 5973 5974 5974 5975 5975 5975 5975 5975 5975 5975 5975 5975 5975 5975 5975 5975 5975 5975 5975 5976 5976 5977 5977 5978 5978 5978 5978 5979 5979 5979 5979 5979 5978 5978 5978 5977 5977 5976 5976 5975 5975 5974 5973 5972 5971 5969
5917 5921 5924 5924 5924 5925 5926 5927 5930 5932 5935 5938 5941 5943 5945 5947 5949 5951 5952 5954 5955 5956 5958 5958 5959 5961 5962 5962 5963 5964 5965 5966 5967 5968 5968 5969 5970 5971 5973 5973 5974 5974 5974 5975 5975 5975 5975 5975 5975 5975 5975 5975 5975 5975 5975 5975 5975 5975 5975 5976 5976 5977 5977 5977 5978 5978 5978 5978 5978 5978 5978 5978 5978 5978 5977 5977 5976 5976 5975 5974 5973 5972 5971 5970 5968
5914 5918 5921 5923 5924 5923 5924 5925 5927 5930 5932 5935 5938 5940 5943 5945 5946 5948 5950 5952 5953 5955 5956 5957 5958 5959 5960 5961 5962 5963 5964 5965 5966 5967 5968 5969 5970 5971 5972 5973 5973 5974 5974 5974 5974 5974 5975 5975 5975 5975 5975 5975 5975 5975 5975 5975 5974 5974 5975 5975 5976 5976 5976 5977 5977 5977 5977 5977 5977 5977 5977 5977 5977 5977 5976 5976 5976 5975 5974 5974 5973 5972 5971 5969 5968
5913 5916 5919 5921 5922 5922 5922 5923 5924 5927 5929 5932 5935 5937 5940 5942 5944 5946 5948 5950 5952 5953 5954 5956 5957 5958 5959 5960 5961 5962 5963 5964 5965 5966 5967 5968 5969 5970 5971 5972 5973 5973 5974 5974 5974 5974 5974 5974 5974 5974 5974 5974 5974 5974 5974 5974 5974 5974 5974 5974 5975 5975 5975 5976 5976 5976 5976 5976 5976 5976 5976 5976 5976 5976 5976 5975 5975 5974 5974 5973 5972 5972 5971 5969 5967
5912 5915 5917 5919 5919 5920 5920 5920 5921 5924 5926 5929 5932 5935 5938 5940 5942 5944 5946 5948 5950 5951 5952 5953 5955 5956 5957 5959 5960 5961 5962 5963 5964 5965 5966 5967 5968 5969 5970 5971 5972 5972 5973 5973 5973 5973 5973 5973 5973 5973 5973 5973 5973 5973 5973 5973 5973 5973 5973 5973 5974 5974 5974 5974 5975 5975 5975 5975 5975 5975 5975 5975 5975 5975 5975 5974 5974 5973 5973 5972 5972 5971 5970 5968 5967
5911 5913 5915 5916 5917 5917 5917 5918 5919 5921 5924 5926 5929 5932 5935 5937 5939 5941 5943 5946 5947 5949 5950 5951 5953 5954 5955 5957 5958 5960 5961 5962 5963 5964 5965 5966 5967 5968 5969 5970 5971 5971 5972 5972 5972 5972 5972 5972 5972 5972 5972 5972 5972 5972 5972 5972 5972 5972 5972 5972 5972 5972 5973 5973 5973 5973 5973 5973 5974 5974 5973 5973 5974 5974 5973 5973 5972 5972 5971 5971 5970 5970 5969 5967 5966
5909 5912 5913 5913 5914 5915 5915 5916 5917 5919 5921 5924 5926 5929 5931 5934 5936 5938 5940 5943 5945 5946 5948 5949 5950 5952 5953 5955 5956 5958 5959 5960 5961 5962 5963 5964 5965 5967 5968 5969 5969 5970 5971 5971 5971 5971 5971 5971 5971 5971 5971 5971 5971 5971 5971 5971 5970 5970 5971 5971 5971 5971 5971 5971 5971 5971 5971 5971 5972 5972 5972 5972 5972 5972 5972 5971 5971 5970 5970 5969 5969 5968 5968 5966 5964
5907 5908 5909 5910 5911 5912 5913 5913 5914 5916 5918 5921 5924 5926 5928 5931 5933 5935 5937 5939 5942 5944 5945 5946 5948 5949 5951 5952 5954 5955 5957 5958 5959 5960 5961 5962 5964 5965 5966 5967 5968 5968 5969 5969 5970 5970 5970 5970 5970 5969 5969 5969 5969 5969 5969 5969 5969 5969 5969 5969 5969 5969 5969 5969 5969 5970 5970 5970 5970 5970 5970 5970 5970 5970 5970 5970 5969 5969 5968 5968 5967 5967 5966 5965 5963
5903 5905 5906 5906 5908 5910 5911 5911 5912 5914 5916 5918 5921 5923 5926 5928 5930 5932 5934 5936 5938 5941 5943 5944 5945 5947 5948 5950 5951 5953 5954 5955 5956 5957 5958 5960 5961 5962 5964 5965 5966 5966 5967 5967 5967 5968 5968 5968 5968 5968 5968 5968 5967 5967 5967 5967 5967 5967 5967 5967 5967 5967 5967 5967 5967 5968 5968 5968 5968 5968 5968 5968 5968 5968 5968 5968 5968 5967 5967 5966 5966 5965 5964 5963 5961
5896 5898 5901 5904 5906 5907 5908 5909 5910 5911 5913 5915 5918 5921 5923 5925 5928 5930 5931 5932 5934 5937 5940 5942 5943 5944 5946 5947 5949 5950 5951 5952 5953 5954 5956 5957 5958 5960 5961 5962 5963 5964 5965 5965 5965 5965 5966 5966 5966 5967 5966 5966 5966 5965 5965 5965 5965 5965 5965 5965 5965 5965 5965 5965 5965 5965 5966 5966 5966 5965 5966 5966 5966 5966 5966 5966 5966 5965 5965 5964 5963 5963 5962 5960 5959
5892 5891 5893 5897 5901 5904 5905 5906 5907 5909 5911 5913 5916 5918 5920 5922 5924 5926 5928 5929 5931 5934 5936 5938 5940 5941 5943 5944 5946 5947 5948 5949 5950 5951 5952 5954 5955 5957 5958 5959 5960 5961 5962 5962 5962 5963 5963 5964 5964 5964 5964 5964 5964 5964 5963 5963 5963 5963 5963 5963 5963 5963 5963 5963 5963 5963 5963 5964 5963 5963 5963 5964 5964 5964 5964 5964 5964 5963 5963 5962 5961 5961 5960 5958 5957
5898 5896 5894 5894 5896 5900 5902 5903 5905 5907 5909 5911 5913 5916 5918 5920 5921 5923 5925 5927 5928 5930 5932 5934 5936 5938 5939 5941 5942 5944 5945 5947 5947 5948 5949 5951 5952 5954 5955 5956 5958 5958 5959 5959 5959 5960 5960 5961 5961 5962 5962 5962 5962 5962 5961 5961 5962 5962 5961 5961 5961 5961 5961 5961 5961 5961 5961 5961 5961 5961 5961 5962 5962 5962 5961 5961 5961 5961 5961 5960 5959 5958 5958 5956 5955
5898 5901 5902 5900 5897 5897 5899 5901 5903 5905 5907 5909 5911 5913 5915 5917 5919 5920 5922 5924 5925 5926 5928 5930 5933 5934 5936 5937 5938 5940 5942 5943 5944 5945 5946 5947 5949 5951 5952 5953 5955 5955 5956 5956 5956 5957 5957 5958 5958 5959 5959 5959 5959 5960 5959 5959 5959 5959 5959 5959 5959 5959 5959 5958 5959 5959 5959 5959 5959 5959 5959 5959 5959 5960 5959 5959 5959 5958 5958 5958 5957 5956 5955 5954 5952
5893 5896 5900 5901 5898 5897 5897 5899 5901 5903 5905 5907 5909 5911 5913 5914 5916 5918 5919 5921 5922 5923 5925 5926 5928 5930 5932 5934 5935 5936 5938 5939 5941 5942 5942 5943 5945 5947 5949 5950 5951 5952 5952 5952 5953 5953 5954 5955 5955 5956 5956 5956 5957 5957 5957 5957 5957 5957 5957 5957 5957 5957 5956 5956 5956 5956 5956 5957 5957 5957 5957 5956 5957 5957 5957 5957 5956 5955 5955 5955 5954 5953 5953 5952 5950
5889 5890 5893 5897 5898 5897 5896 5897 5899 5900 5902 5904 5907 5909 5910 5912 5913 5915 5917 5918 5919 5921 5921 5923 5925 5926 5928 5930 5932 5933 5934 5935 5937 5938 5939 5940 5941 5943 5945 5946 5948 5949 5949 5949 5949 5950 5951 5951 5952 5953 5953 5953 5954 5954 5955 5955 5955 5954 5954 5954 5954 5954 5953 5953 5954 5954 5954 5954 5955 5954 5954 5954 5954 5954 5954 5954 5953 5952 5952 5952 5951 5950 5949 5949 5948
5886 5888 5890 5893 5895 5895 5894 5895 5896 5898 5900 5902 5904 5906 5907 5909 5911 5912 5914 5915 5916 5917 5918 5920 5921 5923 5925 5926 5928 5930 5931 5932 5933 5934 5935 5936 5937 5939 5940 5942 5944 5945 5945 5945 5946 5946 5947 5948 5949 5949 5950 5950 5951 5952 5952 5952 5952 5952 5952 5952 5951 5951 5950 5950 5951 5951 5951 5952 5952 5952 5952 5952 5952 5952 5951 5951 5950 5949 5949 5949 5947 5946 5945 5945 5944
5882 5884 5886 5888 5890 5891 5891 5892 5893 5895 5897 5899 5900 5902 5904 5906 5908 5909 5911 5912 5913 5914 5915 5917 5918 5919 5921 5922 5924 5926 5927 5928 5929 5930 5931 5932 5933 5935 5936 5938 5939 5940 5941 5942 5942 5943 5944 5945 5945 5946 5947 5947 5948 5949 5949 5949 5949 5949 5949 5949 5948 5947 5947 5948 5948 5948 5948 5949 5949 5949 5949 5949 5949 5949 5948 5948 5947 5946 5946 5946 5944 5942 5941 5941 5940
5877 5879 5881 5883 5885 5887 5888 5890 5891 5893 5894 5895 5897 5899 5901 5903 5904 5906 5907 5908 5910 5911 5912 5913 5915 5916 5918 5919 5920 5922 5923 5924 5925 5926 5927 5928 5929 5930 5932 5934 5935 5936 5937 5938 5939 5940 5941 5942 5942 5943 5943 5944 5945 5945 5946 5946 5946 5946 5946 5945 5945 5945 5944 5945 5945 5945 5945 5946 5946 5946 5946 5946 5946 5946 5945 5944 5943 5943 5943 5942 5940 5939 5938 5937 5936
5872 5874 5876 5879 5881 5883 5884 5886 5888 5889 5891 5892 5894 5895 5897 5899 5901 5902 5904 5905 5906 5908 5909 5910 5911 5913 5914 5916 5917 5918 5919 5920 5921 5922 5923 5924 5925 5927 5929 5930 5931 5932 5934 5934 5935 5936 5937 5938 5939 5939 5940 5941 5942 5942 5942 5942 5943 5943 5942 5942 5942 5942 5942 5942 5942 5942 5942 5943 5943 5943 5942 5942 5942 5942 5941 5940 5939 5939 5939 5938 5936 5935 5934 5933 5932
5867 5869 5872 5875 5877 5878 5880 5882 5884 5886 5888 5889 5891 5892 5893 5895 5897 5899 5900 5901 5903 5904 5905 5907 5908 5909 5910 5912 5914 5915 5915 5916 5917 5918 5919 5920 5921 5923 5925 5926 5927 5929 5930 5931 5932 5932 5934 5935 5936 5936 5936 5937 5938 5939 5939 5939 5939 5939 5939 5939 5939 5939 5939 5939 5939 5939 5939 5939 5940 5940 5939 5938 5938 5938 5937 5936 5935 5935 5935 5934 5932 5931 5930 5930 5928
5863 5865 5868 5870 5872 5874 5876 5878 5880 5882 5884 5886 5887 5889 5890 5891 5893 5895 5896 5897 5899 5900 5902 5903 5905 5906 5907 5908 5910 5911 5912 5912 5913 5914 5915 5916 5917 5919 5921 5922 5924 5925 5927 5928 5928 5929 5931 5932 5932 5932 5933 5934 5935 5936 5936 5936 5936 5936 5935 5935 5936 5936 5936 5936 5935 5936 5936 5936 5936 5936 5935 5934 5934 5933 5932 5931 5931 5931 5930 5929 5928 5927 5926 5925 5925
5858 5861 5864 5866 5868 5870 5872 5874 5876 5878 5880 5882 5884 5885 5887 5888 5889 5891 5892 5893 5895 5897 5898 5899 5901 5902 5903 5904 5906 5907 5907 5908 5909 5910 5911 5912 5913 5915 5917 5919 5920 5922 5923 5924 5925 5926 5928 5928 5929 5929 5930 5931 5932 5933 5933 5933 5933 5932 5932 5932 5932 5932 5932 5932 5932 5932 5932 5932 5932 5932 5931 5930 5929 5928 5928 5927 5926 5926 5925 5924 5923 5923 5922 5921 5920
5853 5857 5860 5862 5864 5866 5868 5870 5872 5874 5876 5878 5880 5881 5883 5884 5885 5887 5888 5889 5891 5893 5894 5895 5897 5898 5899 5900 5901 5902 5903 5904 5905 5906 5907 5908 5910 5911 5913 5915 5917 5918 5919 5920 5922 5923 5924 5924 5925 5927 5928 5928 5929 5929 5930 5930 5930 5929 5929 5929 5928 5928 5928 5928 5928 5928 5928 5928 5928 5927 5926 5925 5924 5924 5924 5923 5922 5921 5921 5920 5919 5919 5918 5917 5917
5848 5851 5854 5857 5859 5861 5863 5865 5868 5870 5872 5874 5875 5877 5878 5880 5881 5883 5884 5886 5887 5889 5890 5891 5892 5894 5895 5896 5897 5898 5899 5900 5902 5902 5904 5905 5906 5908 5909 5911 5913 5915 5916 5917 5919 5920 5921 5922 5923 5924 5925 5926 5926 5926 5926 5927 5927 5926 5926 5925 5925 5925 5924 5924 5924 5924 5924 5923 5923 5922 5922 5921 5920 5920 5920 5919 5919 5918 5917 5916 5916 5916 5915 5914 5913
5843 5846 5849 5851 5853 5855 5858 5861 5863 5865 5867 5869 5871 5873 5875 5876 5877 5879 5881 5882 5884 5885 5886 5887 5888 5889 5891 5891 5892 5893 5895 5897 5898 5899 5900 5901 5902 5904 5906 5908 5910 5911 5913 5914 5915 5917 5918 5920 5921 5922 5922 5923 5923 5923 5924 5924 5924 5923 5923 5923 5922 5921 5921 5920 5920 5920 5919 5918 5918 5918 5917 5917 5917 5916 5916 5916 5916 5915 5914 5913 5913 5913 5912 5911 5909
5838 5841 5843 5845 5848 5850 5852 5855 5857 5860 5862 5865 5867 5869 5870 5872 5873 5875 5877 5878 5879 5880 5881 5883 5884 5885 5885 5886 5888 5890 5892 5893 5894 5894 5895 5897 5899 5901 5903 5905 5906 5908 5910 5911 5912 5914 5916 5917 5918 5918 5919 5919 5920 5920 5920 5921 5920 5920 5920 5919 5919 5918 5917 5917 5916 5915 5914 5914 5914 5914 5913 5913 5913 5913 5913 5913 5914 5913 5911 5911 5910 5909 5908 5906 5905
5833 5835 5837 5839 5842 5845 5847 5849 5852 5855 5858 5860 5862 5864 5866 5867 5869 5871 5872 5873 5874 5876 5877 5878 5879 5880 5881 5882 5885 5887 5888 5888 5889 5890 5892 5894 5896 5898 5900 5901 5903 5905 5906 5908 5909 5911 5912 5913 5914 5915 5915 5916 5916 5917 5917 5917 5917 5917 5916 5916 5915 5915 5914 5913 5912 5911 5911 5911 5910 5910 5909 5909 5909 5910 5910 5911 5910 5909 5907 5907 5906 5905 5903 5902 5901
5827 5829 5831 5834 5836 5839 5841 5843 5845 5849 5852 5855 5857 5859 5861 5863 5864 5866 5868 5868 5869 5871 5872 5873 5874 5875 5877 5880 5881 5883 5884 5884 5886 5888 5890 5891 5893 5895 5896 5898 5900 5901 5903 5904 5906 5908 5909 5910 5911 5912 5912 5912 5913 5913 5912 5913 5913 5912 5912 5912 5911 5910 5910 5909 5908 5908 5907 5907 5907 5906 5905 5905 5906 5906 5906 5906 5905 5904 5902 5901 5901 5900 5899 5897 5896
5820 5822 5825 5828 5831 5834 5836 5837 5840 5843 5846 5849 5852 5854 5857 5858 5860 5861 5862 5863 5865 5866 5867 5868 5870 5871 5874 5876 5878 5879 5881 5882 5884 5886 5887 5888 5889 5891 5892 5894 5896 5897 5899 5901 5903 5904 5905 5906 5907 5908 5908 5908 5908 5908 5908 5908 5908 5908 5907 5907 5907 5906 5906 5905 5904 5904 5903 5903 5902 5902 5901 5900 5900 5900 5899 5899 5899 5898 5897 5896 5896 5895 5893 5892 5891
5813 5815 5818 5822 5825 5828 5831 5833 5836 5838 5842 5845 5847 5850 5852 5854 5855 5857 5858 5859 5860 5862 5863 5865 5866 5868 5870 5872 5874 5876 5878 5880 5882 5883 5884 5885 5886 5887 5889 5890 5892 5894 5896 5897 5899 5900 5901 5902 5903 5903 5903 5904 5904 5903 5903 5904 5903 5903 5903 5903 5902 5902 5902 5902 5900 5900 5899 5898 5897 5896 5895 5894 5894 5893 5892 5893 5893 5893 5893 5892 5891 5889 5886 5884 5883
5804 5806 5808 5811 5815 5819 5823 5827 5830 5834 5837 5840 5843 5845 5847 5849 5851 5852 5854 5855 5857 5859 5860 5862 5863 5865 5867 5869 5872 5874 5875 5877 5879 5880 5881 5882 5883 5884 5885 5887 5888 5890 5892 5893 5894 5895 5896 5897 5898 5898 5899 5899 5899 5899 5899 5899 5899 5899 5898 5898 5897 5897 5897 5896 5895 5895 5894 5893 5892 5891 5890 5889 5887 5886 5886 5887 5888 5888 5888 5886 5885 5883 5879 5876 5875
5797 5799 5801 5802 5804 5808 5813 5817 5822 5826 5831 5835 5838 5840 5841 5843 5845 5847 5849 5851 5853 5855 5857 5859 5861 5863 5865 5867 5869 5871 5873 5874 5875 5876 5877 5878 5879 5881 5882 5883 5884 5886 5887 5888 5889 5890 5891 5892 5893 5894 5894 5895 5895 5895 5895 5895 5894 5894 5894 5893 5892 5891 5890 5890 5889 5889 5889 5887 5886 5885 5883 5882 5881 5880 5881 5881 5882 5882 5881 5880 5878 5877 5873 5870 5869
5792 5794 5797 5800 5801 5803 5807 5811 5814 5817 5823 5828 5833 5834 5834 5834 5837 5840 5843 5845 5847 5849 5852 5855 5858 5860 5862 5864 5866 5867 5869 5870 5871 5872 5873 5875 5876 5877 5878 5879 5880 5881 5882 5883 5885 5886 5887 5888 5888 5889 5890 5890 5891 5891 5891 5891 5890 5889 5889 5888 5886 5885 5884 5883 5883 5883 5882 5881 5880 5879 5878 5876 5875 5875 5875 5875 5875 5875 5874 5873 5872 5871 5867 5865 5865
5787 5790 5795 5799 5801 5802 5804 5807 5809 5812 5816 5820 5824 5828 5828 5826 5825 5827 5830 5834 5839 5844 5847 5851 5855 5857 5859 5861 5863 5863 5864 5866 5867 5868 5870 5871 5872 5873 5873 5874 5875 5876 5878 5879 5880 5881 5882 5883 5883 5884 5885 5885 5886 5886 5886 5885 5884 5884 5882 5881 5880 5879 5878 5877 5877 5877 5877 5876 5875 5874 5873 5872 5871 5870 5870 5870 5870 5869 5869 5868 5866 5863 5861 5860 5860
5782 5786 5792 5797 5800 5800 5801 5803 5805 5807 5811 5813 5815 5820 5823 5821 5818 5820 5825 5829 5834 5840 5843 5846 5851 5854 5856 5857 5858 5859 5860 5862 5863 5865 5866 5867 5867 5868 5868 5869 5871 5872 5874 5875 5876 5877 5878 5878 5878 5879 5879 5880 5880 5880 5879 5879 5878 5877 5875 5874 5873 5873 5873 5873 5873 5873 5872 5872 5871 5869 5868 5868 5867 5867 5866 5866 5866 5865 5864 5863 5860 5857 5855 5854 5854
5779 5783 5787 5792 5795 5796 5797 5798 5799 5802 5806 5809 5810 5813 5817 5819 5819 5823 5827 5830 5834 5838 5842 5846 5849 5850 5851 5853 5854 5855 5856 5858 5859 5860 5862 5862 5862 5863 5863 5865 5867 5868 5870 5871 5871 5872 5872 5872 5873 5874 5874 5874 5874 5873 5873 5872 5871 5871 5869 5868 5868 5869 5868 5868 5869 5868 5867 5866 5866 5864 5863 5863 5862 5860 5860 5860 5860 5859 5858 5857 5854 5851 5850 5849 5849
5777 5780 5783 5786 5788 5789 5792 5794 5795 5797 5801 5805 5806 5807 5812 5816 5818 5822 5826 5830 5833 5837 5841 5845 5847 5847 5847 5849 5850 5851 5852 5854 5855 5856 5857 5857 5858 5859 5859 5861 5862 5863 5864 5865 5865 5866 5866 5867 5868 5868 5868 5868 5868 5867 5866 5866 5866 5865 5864 5863 5863 5863 5862 5862 5862 5862 5861 5861 5860 5859 5858 5857 5855 5853 5853 5853 5853 5852 5851 5849 5847 5845 5844 5843 5842
5773 5775 5779 5781 5782 5785 5788 5791 5792 5793 5796 5800 5801 5804 5808 5813 5816 5819 5823 5827 5830 5833 5836 5838 5840 5841 5843 5845 5846 5847 5848 5850 5851 5851 5852 5853 5854 5855 5856 5856 5857 5858 5859 5859 5860 5861 5862 5862 5863 5863 5863 5863 5862 5861 5861 5860 5860 5859 5858 5857 5857 5857 5857 5856 5856 5856 5856 5855 5854 5853 5852 5850 5848 5847 5847 5847 5846 5845 5843 5841 5839 5838 5837 5836 5835
5767 5770 5773 5776 5777 5780 5783 5786 5787 5789 5791 5794 5796 5799 5805 5810 5814 5816 5819 5823 5825 5827 5829 5831 5834 5836 5838 5840 5841 5843 5844 5844 5845 5846 5848 5849 5850 5850 5850 5851 5852 5853 5853 5854 5854 5855 5856 5857 5857 5857 5857 5857 5856 5855 5855 5854 5853 5853 5853 5853 5852 5853 5853 5852 5851 5851 5850 5849 5848 5846 5845 5843 5841 5840 5840 5839 5838 5838 5836 5835 5833 5831 5830 5829 5828
5763 5765 5768 5770 5771 5773 5776 5778 5781 5782 5784 5787 5790 5794 5800 5806 5810 5812 5814 5817 5820 5822 5824 5827 5829 5832 5834 5835 5837 5837 5838 5838 5839 5841 5842 5843 5843 5844 5844 5845 5846 5846 5847 5848 5848 5849 5849 5850 5850 5850 5851 5851 5850 5850 5849 5848 5847 5847 5847 5847 5848 5848 5848 5847 5846 5844 5844 5842 5841 5839 5838 5836 5835 5833 5832 5831 5831 5830 5829 5827 5826 5825 5824 5822 5821
5757 5761 5763 5764 5766 5767 5769 5772 5774 5776 5778 5781 5784 5789 5795 5799 5801 5804 5807 5810 5813 5816 5819 5822 5825 5827 5828 5830 5831 5831 5831 5832 5833 5835 5835 5836 5836 5837 5838 5838 5839 5840 5841 5841 5842 5842 5843 5843 5844 5844 5844 5844 5844 5844 5844 5843 5842 5841 5840 5840 5841 5841 5841 5840 5839 5838 5836 5836 5835 5833 5832 5830 5828 5827 5826 5825 5823 5822 5821 5819 5819 5818 5817 5815 5813
5752 5755 5758 5761 5762 5764 5766 5769 5770 5772 5774 5776 5777 5782 5787 5790 5792 5795 5799 5803 5806 5810 5812 5815 5818 5820 5822 5823 5824 5824 5825 5826 5827 5828 5829 5829 5830 5831 5832 5832 5833 5834 5835 5836 5836 5837 5837 5837 5837 5838 5838 5838 5838 5838 5837 5837 5837 5835 5834 5833 5834 5834 5833 5833 5832 5831 5830 5829 5828 5827 5825 5824 5822 5820 5819 5818 5817 5815 5814 5813 5812 5811 5809 5807 5806
5748 5750 5753 5756 5758 5761 5764 5766 5768 5769 5772 5774 5775 5778 5783 5786 5788 5790 5793 5796 5800 5803 5805 5808 5811 5812 5814 5816 5817 5818 5819 5820 5821 5822 5823 5824 5824 5825 5826 5827 5828 5828 5829 5830 5830 5830 5831 5831 5831 5831 5831 5831 5831 5831 5831 5830 5830 5830 5829 5828 5827 5827 5826 5826 5825 5824 5823 5822 5820 5819 5818 5817 5815 5813 5811 5810 5809 5808 5806 5805 5804 5802 5800 5798 5797
5742 5746 5749 5752 5755 5757 5759 5762 5763 5765 5768 5771 5773 5775 5778 5782 5784 5785 5787 5791 5795 5797 5799 5802 5803 5805 5807 5809 5811 5812 5813 5814 5815 5816 5817 5818 5819 5820 5820 5821 5821 5822 5823 5823 5823 5824 5824 5825 5825 5825 5825 5825 5825 5825 5825 5824 5824 5823 5823 5822 5821 5820 5820 5819 5818 5816 5815 5814 5813 5812 5811 5809 5807 5806 5804 5802 5801 5799 5798 5796 5795 5793 5791 5789 5787
5737 5741 5745 5748 5751 5753 5755 5757 5759 5761 5764 5767 5769 5771 5774 5777 5780 5782 5784 5786 5789 5792 5794 5796 5798 5799 5801 5803 5804 5806 5807 5807 5808 5809 5810 5811 5812 5813 5814 5814 5815 5816 5816 5817 5817 5818 5818 5818 5818 5819 5819 5819 5819 5819 5818 5818 5817 5817 5816 5815 5814 5814 5813 5811 5810 5809 5808 5806 5805 5804 5803 5802 5800 5798 5796 5794 5792 5790 5789 5787 5785 5784 5782 5780 5779
5732 5736 5739 5743 5746 5748 5750 5752 5755 5757 5760 5763 5765 5767 5770 5774 5776 5778 5780 5782 5784 5786 5788 5790 5792 5793 5795 5796 5798 5799 5800 5800 5801 5802 5803 5804 5805 5806 5807 5808 5808 5809 5810 5811 5811 5811 5812 5812 5812 5812 5812 5812 5812 5812 5811 5811 5811 5810 5809 5809 5808 5807 5806 5805 5803 5802 5800 5799 5798 5796 5795 5794 5792 5791 5789 5786 5784 5782 5780 5778 5776 5775 5773 5771 5770
5726 5730 5734 5738 5740 5742 5745 5747 5750 5753 5756 5759 5760 5763 5765 5768 5771 5772 5774 5775 5777 5779 5781 5783 5785 5787 5788 5790 5791 5792 5793 5794 5795 5796 5797 5797 5798 5799 5800 5801 5802 5803 5804 5804 5805 5805 5805 5805 5805 5805 5805 5805 5805 5805 5804 5804 5803 5803 5802 5801 5801 5800 5799 5797 5796 5794 5793 5791 5790 5788 5787 5785 5784 5782 5780 5778 5776 5774 5772 5770 5768 5766 5765 5763 5762
5718 5723 5727 5732 5735 5737 5740 5743 5746 5749 5752 5754 5756 5758 5760 5763 5765 5766 5767 5768 5770 5772 5774 5777 5779 5780 5782 5783 5785 5785 5786 5787 5788 5789 5790 5791 5792 5793 5794 5795 5795 5796 5797 5798 5798 5798 5799 5799 5798 5798 5798 5798 5798 5797 5796 5796 5795 5794 5794 5793 5793 5792 5791 5789 5788 5786 5784 5782 5781 5779 5778 5776 5775 5773 5771 5769 5767 5765 5763 5761 5760 5758 5756 5754 5753